Home   Weather   Kawartha Lakes   Past weeks
Flag for Canada

Past Weather in Kawartha Lakes, Ontario, Canada — Yesterday and Last 2 Weeks

Now
58 °F

Cool.


Feels Like: 58 °F
Forecast: 81 / 51 °F
Wind: 2 mph from Southeast

Location: Lagoon City

Current Time: Aug 20, 2019 at 6:07:38 am

Latest Report: Aug 20, 2019 at 5:00 am


Visibility: N/A

Pressure: 30.09 "Hg

Humidity: 93%

Dew Point: 56 °F

Location of Kawartha LakesLocation

Past Weather in Kawartha Lakes — Graph

°F

Kawartha Lakes Temperature Yesterday

Maximum temperature yesterday: 74 °F (at 5:00 pm)
Minimum temperature yesterday: 63 °F (at 11:00 pm)
Average temperature yesterday: 70 °F

High & Low Weather Summary for the Past Weeks

 TemperatureHumidityPressure
High81 °F (Aug 5, 4:00 pm)100% (Aug 7, 9:00 am)30.09 "Hg (Aug 7, 9:00 am)
Low49 °F (Aug 15, 7:00 am)31% (Aug 13, 5:00 pm)29.59 "Hg (Aug 8, 4:00 pm)
Average68 °F70%29.87 "Hg
* Reported Aug 5 5:00 am — Aug 20 5:00 am, Kawartha Lakes. Weather by CustomWeather, © 2019

Note: Actual official high and low records may vary slightly from our data, if they occured in-between our weather recording intervals... More about our weather records

Advertising

Kawartha Lakes Weather History for the Previous 24 Hours

Scroll right to see more
 ConditionsComfort  
Time TempWeatherWind HumidityBarometerVisibility
5:00 am
Tue, Aug 20
58 °FCool.2 mph93%30.09 "HgN/A
4:00 am56 °FCool.2 mph90%30.08 "HgN/A
3:00 am57 °FCool.1 mph91%30.07 "HgN/A
2:00 am59 °FCool.2 mph89%30.07 "HgN/A
1:00 am60 °FCool.2 mph83%30.06 "HgN/A
12:00 am64 °FMild.1 mph75%30.06 "HgN/A
11:00 pm
Mon, Aug 19
63 °FMild.2 mph76%30.05 "HgN/A
10:00 pm65 °FMild.3 mph70%30.03 "HgN/A
9:00 pm68 °FMild.9 mph66%30.02 "HgN/A
8:00 pm70 °FMild.6 mph59%30.01 "HgN/A
7:00 pm72 °FMild.12 mph51%30.01 "HgN/A
6:00 pm74 °FMild.12 mph48%30.01 "HgN/A
5:00 pm74 °FMild.15 mph41%30.00 "HgN/A
4:00 pm71 °FMild.15 mph49%30.00 "HgN/A
3:00 pm71 °FMild.16 mph51%30.00 "HgN/A
2:00 pm71 °FMild.15 mph53%30.00 "HgN/A
1:00 pm71 °FMild.14 mph53%30.00 "HgN/A
12:00 pm70 °FMild.13 mph58%29.99 "HgN/A
11:00 am69 °FMild.14 mph61%29.98 "HgN/A
10:00 am69 °FMild.15 mph61%29.95 "HgN/A
9:00 am69 °FMild.15 mph76%29.93 "HgN/A
8:00 am70 °FMild.16 mph79%29.90 "HgN/A
7:00 am69 °FMild.15 mph86%29.88 "HgN/A
6:00 am71 °FMild.16 mph86%29.86 "HgN/A
Weather by CustomWeather, © 2019

See weather overview